FW8892 Weather Reports


Display with metric or nautical units.
time (UTC)temp
F
wind
direction
speed
MPH
gust
MPH
rain 1hr
in
rain 24hr
in
rain mn
in
humidity
%
barometer
mb
20260906175529 93 322 3.0 12.0 0.00 0.00 0.00 59 1012.9
20260906175028 94 5 4.0 12.0 0.00 0.00 0.00 59 1013.0
20260906174550 94 22 2.0 6.0 0.00 0.00 0.00 60 1012.9
20260906174029 93 263 1.0 7.0 0.00 0.00 0.00 63 1013.1
20260906173528 92 279 2.0 8.0 0.00 0.00 0.00 64 1013.1
20260906173055 92 12 1.0 8.0 0.00 0.00 0.00 64 1013.2
20260906172530 92 323 2.0 7.0 0.00 0.00 0.00 66 1013.2
20260906172028 92 38 3.0 8.0 0.00 0.00 0.00 64 1013.3
20260906171600 93 322 2.0 9.0 0.00 0.00 0.00 64 1013.4
20260906171029 94 297 1.0 9.0 0.00 0.00 0.00 63 1013.4
20260906170532 94 35 2.0 9.0 0.00 0.00 0.00 64 1013.4
20260906170054 94 345 3.0 9.0 0.00 0.00 0.00 64 1013.5
20260906165529 94 19 1.0 6.0 0.00 0.00 0.00 65 1013.5
20260906165033 93 0 2.0 9.0 0.00 0.00 0.00 64 1013.6
20260906164558 93 69 3.0 9.0 0.00 0.00 0.00 65 1013.6
20260906164028 93 5 3.0 10.0 0.00 0.00 0.00 64 1013.6
20260906163529 93 272 2.0 10.0 0.00 0.00 0.00 65 1013.6
20260906163055 93 360 2.0 6.0 0.00 0.00 0.00 65 1013.6
20260906162529 93 9 2.0 6.0 0.00 0.00 0.00 64 1013.7
20260906162028 93 355 2.0 6.0 0.00 0.00 0.00 63 1013.6
20260906161554 93 319 1.0 4.0 0.00 0.00 0.00 65 1013.8
20260906161028 93 295 1.0 4.0 0.00 0.00 0.00 65 1013.7
20260906160527 92 301 1.0 5.0 0.00 0.00 0.00 65 1013.7
20260906160055 92 336 2.0 8.0 0.00 0.00 0.00 64 1013.8
20260906155529 92 82 3.0 8.0 0.00 0.00 0.00 66 1013.9
20260906155028 92 352 1.0 5.0 0.00 0.00 0.00 68 1013.9
20260906154558 91 295 1.0 5.0 0.00 0.00 0.00 68 1013.9
20260906154029 91 302 1.0 7.0 0.00 0.00 0.00 70 1014.0
20260906153529 90 284 1.0 7.0 0.00 0.00 0.00 71 1014.0
20260906153059 90 340 2.0 10.0 0.00 0.00 0.00 69 1013.9
20260906152529 90 326 1.0 10.0 0.00 0.00 0.00 70 1014.0
20260906152028 90 5 2.0 8.0 0.00 0.00 0.00 67 1013.9
20260906151556 90 256 1.0 5.0 0.00 0.00 0.00 70 1013.8
20260906151029 89 286 1.0 5.0 0.00 0.00 0.00 70 1013.7
20260906150529 89 304 2.0 4.0 0.00 0.00 0.00 69 1013.7
20260906150053 89 294 1.0 4.0 0.00 0.00 0.00 70 1013.8
20260906145530 89 338 2.0 4.0 0.00 0.00 0.00 69 1013.7
20260906145029 88 315 1.0 3.0 0.00 0.00 0.00 70 1013.7
20260906144557 88 296 1.0 3.0 0.00 0.00 0.00 70 1013.8
20260906144030 87 262 1.0 6.0 0.00 0.00 0.00 72 1013.8
20260906143529 87 318 2.0 6.0 0.00 0.00 0.00 72 1013.9
20260906143059 87 17 1.0 4.0 0.00 0.00 0.00 72 1013.9
20260906142528 87 313 1.0 6.0 0.00 0.00 0.00 73 1013.9
20260906142029 87 5 1.0 6.0 0.00 0.00 0.00 72 1013.8
20260906141555 86 0 1.0 4.0 0.00 0.00 0.00 73 1013.9
20260906141030 86 305 1.0 3.0 0.00 0.00 0.00 72 1013.9
20260906140529 86 265 1.0 3.0 0.00 0.00 0.00 73 1013.9
20260906140051 86 294 1.0 4.0 0.00 0.00 0.00 75 1013.9
20260906135528 85 0 0.0 4.0 0.00 0.00 0.00 75 1013.8
20260906135028 85 207 1.0 3.0 0.00 0.00 0.00 74 1013.8
20260906134613 84 332 1.0 3.0 0.00 0.00 0.00 76 1013.8
20260906134029 83 226 1.0 3.0 0.00 0.00 0.00 77 1013.9
20260906133530 83 315 1.0 3.0 0.00 0.00 0.00 77 1014.0
20260906133054 83 282 1.0 4.0 0.00 0.00 0.00 78 1014.1
20260906132529 82 277 1.0 4.0 0.00 0.00 0.00 79 1014.2
20260906132028 81 297 1.0 3.0 0.00 0.00 0.00 79 1014.3
20260906131554 81 0 1.0 4.0 0.00 0.00 0.00 80 1014.3
20260906131030 81 336 2.0 4.0 0.00 0.00 0.00 80 1014.3
20260906130529 81 303 1.0 4.0 0.00 0.00 0.00 80 1014.3
20260906130132 81 355 0.0 3.0 0.00 0.00 0.00 80 1014.3
20260906125528 80 294 0.0 3.0 0.00 0.00 0.00 81 1014.3
20260906125028 80 355 0.0 2.0 0.00 0.00 0.00 81 1014.2
20260906124607 80 0 0.0 1.0 0.00 0.00 0.00 82 1014.2
20260906124030 79 0 0.0 0.0 0.00 0.00 0.00 83 1014.1
20260906123528 78 0 0.0 0.0 0.00 0.00 0.00 85 1014.1
20260906123049 77 0 0.0 1.0 0.00 0.00 0.00 86 1014.0
20260906122529 77 0 0.0 1.0 0.00 0.00 0.00 87 1014.0
20260906122029 76 0 0.0 0.0 0.00 0.00 0.00 89 1013.8
20260906121558 75 0 0.0 1.0 0.00 0.00 0.00 90 1013.8
20260906121029 74 0 0.0 1.0 0.00 0.00 0.00 91 1013.6
20260906120529 74 0 0.0 1.0 0.00 0.00 0.00 91 1013.5
20260906120111 74 0 0.0 2.0 0.00 0.00 0.00 91 1013.5
20260906115530 73 0 0.0 2.0 0.00 0.00 0.00 91 1013.4
20260906115028 73 213 0.0 3.0 0.00 0.00 0.00 91 1013.4
20260906114551 73 0 0.0 6.0 0.00 0.00 0.00 91 1013.2
20260906114028 73 0 0.0 6.0 0.00 0.00 0.00 91 1013.3
20260906113529 73 0 0.0 6.0 0.00 0.00 0.00 91 1013.2
20260906113054 73 0 1.0 6.0 0.00 0.00 0.00 91 1013.0
20260906112528 73 236 1.0 6.0 0.00 0.00 0.00 91 1013.0
20260906112029 73 0 1.0 6.0 0.00 0.00 0.00 91 1013.0
20260906111548 73 200 0.0 6.0 0.00 0.00 0.00 91 1013.1
20260906111030 73 0 2.0 6.0 0.00 0.00 0.00 92 1012.9
20260906110529 73 240 1.0 6.0 0.00 0.00 0.00 92 1013.0
20260906110056 73 0 1.0 3.0 0.00 0.00 0.00 91 1012.8
20260906105529 73 0 0.0 3.0 0.00 0.00 0.00 91 1012.8
20260906105027 73 0 0.0 3.0 0.00 0.00 0.00 91 1012.8
20260906104556 73 167 0.0 3.0 0.00 0.00 0.00 91 1012.7
20260906104028 73 167 0.0 3.0 0.00 0.00 0.00 90 1012.7
20260906103528 73 0 0.0 3.0 0.00 0.00 0.00 90 1012.7
20260906103100 73 0 0.0 2.0 0.00 0.00 0.00 90 1012.7
20260906102531 73 0 0.0 2.0 0.00 0.00 0.00 90 1012.7
20260906102030 73 0 0.0 2.0 0.00 0.00 0.00 89 1012.5
20260906101548 73 0 0.0 1.0 0.00 0.00 0.00 89 1012.5
20260906101031 74 0 0.0 2.0 0.00 0.00 0.00 89 1012.4
20260906100528 74 0 0.0 3.0 0.00 0.00 0.00 89 1012.4
20260906100055 74 113 1.0 3.0 0.00 0.00 0.00 89 1012.3
20260906095529 74 115 0.0 3.0 0.00 0.00 0.00 89 1012.3
20260906095029 74 0 1.0 3.0 0.00 0.00 0.00 89 1012.3
20260906094551 74 132 0.0 2.0 0.00 0.00 0.00 88 1012.2
20260906094030 74 190 0.0 4.0 0.00 0.00 0.00 88 1012.2
20260906093530 74 196 0.0 4.0 0.00 0.00 0.00 88 1012.3
20260906093054 74 0 1.0 5.0 0.00 0.00 0.00 88 1012.4
20260906092529 74 139 0.0 5.0 0.00 0.00 0.00 88 1012.2
20260906092029 74 0 0.0 5.0 0.00 0.00 0.00 87 1012.3
20260906091559 75 147 0.0 2.0 0.00 0.00 0.00 87 1012.2
20260906091027 75 0 0.0 2.0 0.00 0.00 0.00 87 1012.2
20260906090529 75 0 0.0 4.0 0.00 0.00 0.00 86 1012.2
20260906090055 75 143 1.0 4.0 0.00 0.00 0.00 86 1012.2
20260906085528 75 150 1.0 4.0 0.00 0.00 0.00 86 1012.1
20260906085029 75 0 0.0 6.0 0.00 0.00 0.00 86 1012.1
20260906084549 75 166 2.0 6.0 0.00 0.00 0.00 86 1012.1
20260906084026 75 180 2.0 6.0 0.00 0.00 0.00 85 1012.1
20260906083529 76 167 1.0 6.0 0.00 0.00 0.00 85 1012.1
20260906083048 76 186 2.0 6.0 0.00 0.00 0.00 85 1012.2
20260906082528 76 159 2.0 5.0 0.00 0.00 0.00 85 1012.2
20260906082029 76 159 2.0 6.0 0.00 0.00 0.00 84 1012.2
20260906081548 76 144 2.0 7.0 0.00 0.00 0.00 84 1012.2
20260906081029 76 161 2.0 7.0 0.00 0.00 0.00 84 1012.1
20260906080532 76 178 3.0 6.0 0.00 0.00 0.00 84 1012.1
20260906080057 76 184 2.0 6.0 0.00 0.00 0.00 84 1012.1
20260906075529 76 163 2.0 7.0 0.00 0.00 0.00 84 1012.2
20260906075029 76 203 2.0 7.0 0.00 0.00 0.00 83 1012.2
20260906074550 76 0 1.0 7.0 0.00 0.00 0.00 83 1012.2
20260906074028 76 180 1.0 6.0 0.00 0.00 0.00 83 1012.2
20260906073529 77 176 2.0 6.0 0.00 0.00 0.00 82 1012.3
20260906073048 77 135 2.0 6.0 0.00 0.00 0.00 82 1012.2
20260906072529 77 148 3.0 8.0 0.00 0.00 0.00 82 1012.2
20260906072029 77 176 3.0 8.0 0.00 0.00 0.00 82 1012.3
20260906071600 77 167 2.0 7.0 0.00 0.00 0.00 81 1012.3
20260906071029 77 195 2.0 7.0 0.00 0.00 0.00 81 1012.3
20260906070529 77 128 1.0 5.0 0.00 0.00 0.00 81 1012.5
20260906070058 77 175 1.0 6.0 0.00 0.00 0.00 81 1012.5
20260906065529 78 150 1.0 7.0 0.00 0.00 0.00 81 1012.5
20260906065028 78 185 2.0 7.0 0.00 0.00 0.00 80 1012.4
20260906064549 78 153 2.0 10.0 0.00 0.00 0.00 80 1012.3
20260906064029 78 158 3.0 10.0 0.00 0.00 0.00 80 1012.5
20260906063527 78 148 3.0 7.0 0.00 0.00 0.00 80 1012.4
20260906063048 78 117 2.0 11.0 0.00 0.00 0.00 81 1012.5
20260906062528 78 121 2.0 11.0 0.00 0.00 0.00 81 1012.7
20260906062031 78 128 4.0 10.0 0.00 0.00 0.00 81 1012.8
20260906061613 78 127 3.0 10.0 0.00 0.00 0.00 81 1012.9
20260906061027 78 127 3.0 10.0 0.00 0.00 0.00 82 1012.9
20260906060530 78 168 2.0 10.0 0.00 0.00 0.00 83 1012.9
20260906055529 78 103 2.0 6.0 0.00 0.00 0.00 83 1013.0
20260906055031 78 132 2.0 8.0 0.00 0.00 0.00 83 1013.0
20260906054601 79 153 1.0 8.0 0.00 0.00 0.00 83 1013.1
20260906054029 79 128 3.0 8.0 0.00 0.00 0.00 82 1013.1
20260906053530 79 98 1.0 5.0 0.00 0.00 0.00 82 1013.1
20260906053057 79 126 2.0 5.0 0.00 0.00 0.00 81 1013.0
20260906052527 79 116 2.0 4.0 0.00 0.00 0.00 81 1013.0
20260906052029 80 85 1.0 4.0 0.00 0.00 0.00 80 1013.0
20260906051604 80 0 1.0 6.0 0.00 0.00 0.00 80 1013.0
20260906051028 80 110 2.0 6.0 0.00 0.00 0.00 79 1013.0
20260906050531 80 69 3.0 5.0 0.00 0.00 0.00 79 1013.1
20260906050057 80 65 1.0 7.0 0.00 0.00 0.00 78 1013.0
20260906045529 80 117 0.0 7.0 0.00 0.00 0.00 78 1013.0
20260906045033 81 35 2.0 5.0 0.00 0.00 0.00 78 1013.0
20260906044548 81 67 1.0 4.0 0.00 0.00 0.00 78 1012.8
20260906044034 81 57 0.0 6.0 0.00 0.00 0.00 78 1012.9
20260906043528 81 82 1.0 6.0 0.00 0.00 0.00 78 1013.0
20260906043046 81 339 3.0 5.0 0.00 0.00 0.00 78 1013.1
20260906042530 81 0 0.0 3.0 0.00 0.00 0.00 77 1012.8
20260906042028 81 105 1.0 4.0 0.00 0.00 0.00 77 1012.8
20260906041558 81 186 0.0 4.0 0.00 0.00 0.00 77 1012.7
20260906041029 81 153 2.0 4.0 0.00 0.00 0.00 78 1012.8
20260906040527 81 105 1.0 6.0 0.00 0.00 0.00 79 1013.0
20260906040053 81 213 1.0 6.0 0.00 0.00 0.00 79 1013.0
20260906035526 81 104 2.0 5.0 0.00 0.00 0.00 80 1013.2
20260906035030 81 159 1.0 5.0 0.00 0.00 0.00 80 1013.1
20260906034555 81 69 2.0 4.0 0.00 0.00 0.00 81 1013.2
20260906034029 82 75 0.0 0.0 0.00 0.00 0.00 80 1012.9
20260906033529 82 0 0.0 0.0 0.00 0.00 0.00 79 1012.8
20260906033049 82 0 0.0 0.0 0.00 0.00 0.00 80 1012.8
20260906032529 82 0 0.0 0.0 0.00 0.00 0.00 79 1013.0
20260906032030 83 0 0.0 0.0 0.00 0.00 0.00 79 1012.9
20260906031556 83 0 0.0 0.0 0.00 0.00 0.00 78 1012.8
20260906031032 83 0 0.0 2.0 0.00 0.00 0.00 78 1012.7
20260906030527 83 0 0.0 2.0 0.00 0.00 0.00 77 1012.5
20260906030054 84 75 0.0 4.0 0.00 0.00 0.00 77 1012.5
20260906025530 84 75 0.0 4.0 0.00 0.00 0.00 77 1012.4
20260906025029 84 60 1.0 6.0 0.00 0.00 0.00 77 1012.2
20260906024550 84 113 1.0 6.0 0.00 0.00 0.00 77 1012.2
20260906024030 84 117 1.0 4.0 0.00 0.00 0.00 77 1012.2
20260906023530 84 67 0.0 6.0 0.00 0.00 0.00 77 1012.1
20260906023050 84 258 1.0 6.0 0.00 0.00 0.00 77 1012.0
20260906022529 84 115 2.0 5.0 0.00 0.00 0.00 77 1011.8
20260906022029 84 0 1.0 3.0 0.00 0.00 0.00 76 1011.9
20260906021554 84 121 0.0 2.0 0.00 0.00 0.00 76 1011.8
20260906021028 84 121 1.0 2.0 0.00 0.00 0.00 75 1011.6
20260906020528 84 197 0.0 2.0 0.00 0.00 0.00 75 1011.3
20260906020057 84 197 0.0 1.0 0.00 0.00 0.00 73 1011.4
20260906015528 85 0 0.0 1.0 0.00 0.00 0.00 73 1011.4
20260906015029 85 0 0.0 2.0 0.00 0.00 0.00 72 1011.4
20260906014607 85 0 0.0 2.0 0.00 0.00 0.00 72 1011.4
20260906014028 85 0 0.0 3.0 0.00 0.00 0.00 73 1011.5
20260906013529 85 242 0.0 3.0 0.00 0.00 0.00 72 1011.2
20260906013059 84 246 0.0 3.0 0.00 0.00 0.00 74 1011.3
20260906012528 84 244 0.0 2.0 0.00 0.00 0.00 73 1011.4
20260906012029 84 0 0.0 2.0 0.00 0.00 0.00 74 1011.4
20260906011546 85 0 0.0 2.0 0.00 0.00 0.00 75 1011.4
20260906011029 85 0 0.0 2.0 0.00 0.00 0.00 75 1011.2
20260906010528 85 0 0.0 0.0 0.00 0.00 0.00 75 1011.2
20260906010100 85 0 0.0 0.0 0.00 0.00 0.00 74 1011.2
20260906005530 86 0 0.0 0.0 0.00 0.00 0.00 73 1011.3
20260906005028 86 0 0.0 1.0 0.00 0.00 0.00 73 1011.3
20260906004552 87 0 0.0 1.0 0.00 0.00 0.00 72 1011.3
20260906004031 87 0 0.0 1.0 0.00 0.00 0.00 71 1011.3
20260906003530 88 0 0.0 0.0 0.00 0.00 0.00 69 1011.3
20260906003047 88 0 0.0 1.0 0.00 0.00 0.00 69 1011.5
20260906002527 88 0 0.0 1.0 0.00 0.00 0.00 68 1011.5
20260906002029 89 0 0.0 1.0 0.00 0.00 0.00 67 1011.5
20260906001559 90 0 0.0 1.0 0.00 0.00 0.00 65 1011.3
20260906001030 90 0 0.0 1.0 0.00 0.00 0.00 65 1011.4
20260906000529 91 0 0.0 1.0 0.00 0.00 0.00 63 1011.3
20260906000059 91 0 0.0 1.0 0.00 0.00 0.00 62 1011.4
20260905235529 92 0 0.0 1.0 0.00 0.00 0.00 61 1011.3
20260905235030 92 0 0.0 1.0 0.00 0.00 0.00 60 1011.4
20260905234550 93 0 0.0 1.0 0.00 0.00 0.00 59 1011.3
20260905234029 93 0 0.0 1.0 0.00 0.00 0.00 59 1011.4
20260905233532 93 235 0.0 1.0 0.00 0.00 0.00 58 1011.4
20260905233109 94 0 0.0 2.0 0.00 0.00 0.00 57 1011.3
20260905232528 94 0 0.0 3.0 0.00 0.00 0.00 56 1011.4
20260905232029 94 0 0.0 4.0 0.00 0.00 0.00 55 1011.2
20260905231559 95 223 0.0 4.0 0.00 0.00 0.00 55 1011.2
20260905231034 95 247 0.0 4.0 0.00 0.00 0.00 55 1011.3
20260905230529 95 238 1.0 4.0 0.00 0.00 0.00 54 1011.3
20260905230057 95 233 1.0 4.0 0.00 0.00 0.00 54 1011.3
20260905225528 95 239 0.0 4.0 0.00 0.00 0.00 54 1011.3
20260905225029 96 248 1.0 4.0 0.00 0.00 0.00 53 1011.3
20260905224548 96 242 0.0 4.0 0.00 0.00 0.00 54 1011.2
20260905224028 96 194 1.0 4.0 0.00 0.00 0.00 53 1011.3
20260905223533 96 289 0.0 4.0 0.00 0.00 0.00 53 1011.2
20260905223101 96 252 1.0 4.0 0.00 0.00 0.00 52 1011.2
20260905222529 97 227 1.0 4.0 0.00 0.00 0.00 53 1011.2
20260905222029 97 258 1.0 4.0 0.00 0.00 0.00 52 1011.3
20260905221557 97 218 1.0 3.0 0.00 0.00 0.00 52 1011.3
20260905221029 97 296 0.0 3.0 0.00 0.00 0.00 52 1011.3
20260905220529 97 219 0.0 3.0 0.00 0.00 0.00 52 1011.3
20260905220058 98 263 1.0 3.0 0.00 0.00 0.00 51 1011.3
20260905215529 98 232 0.0 4.0 0.00 0.00 0.00 51 1011.3
20260905215028 98 282 0.0 4.0 0.00 0.00 0.00 50 1011.3
20260905214553 98 243 1.0 5.0 0.00 0.00 0.00 49 1011.3
20260905214030 99 0 1.0 5.0 0.00 0.00 0.00 50 1011.3
20260905213528 99 235 2.0 5.0 0.00 0.00 0.00 50 1011.3
20260905213059 99 0 1.0 4.0 0.00 0.00 0.00 48 1011.4
20260905212529 99 13 2.0 4.0 0.00 0.00 0.00 48 1011.4
20260905212032 100 344 1.0 2.0 0.00 0.00 0.00 48 1011.4
20260905211553 100 297 0.0 3.0 0.00 0.00 0.00 47 1011.4
20260905211028 100 0 0.0 4.0 0.00 0.00 0.00 46 1011.4
20260905210528 100 264 1.0 4.0 0.00 0.00 0.00 49 1011.4
20260905210055 100 22 0.0 3.0 0.00 0.00 0.00 46 1011.6
20260905205556 100 62 0.0 3.0 0.00 0.00 0.00 48 1011.5
20260905205030 100 295 1.0 4.0 0.00 0.00 0.00 46 1011.7
20260905204955 100 278 1.0 4.0 0.00 0.00 0.00 48 1011.7
20260905204029 100 190 0.0 3.0 0.00 0.00 0.00 47 1011.6
20260905203529 100 319 1.0 3.0 0.00 0.00 0.00 47 1011.7
20260905203053 100 281 2.0 5.0 0.00 0.00 0.00 49 1011.9
20260905202528 100 261 1.0 5.0 0.00 0.00 0.00 46 1011.9
20260905202032 101 319 1.0 6.0 0.00 0.00 0.00 48 1012.0
20260905201559 101 287 1.0 6.0 0.00 0.00 0.00 48 1012.2
20260905201028 101 350 3.0 6.0 0.00 0.00 0.00 48 1012.3
20260905200532 101 194 1.0 5.0 0.00 0.00 0.00 48 1012.3
20260905195530 101 310 0.0 5.0 0.00 0.00 0.00 51 1012.4
20260905195029 100 0 2.0 5.0 0.00 0.00 0.00 48 1012.5
20260905194556 100 209 2.0 5.0 0.00 0.00 0.00 48 1012.5
20260905194029 99 198 1.0 5.0 0.00 0.00 0.00 52 1012.8
20260905193532 98 286 1.0 4.0 0.00 0.00 0.00 53 1012.9
20260905193050 98 290 1.0 4.0 0.00 0.00 0.00 55 1012.9
20260905192531 97 234 1.0 4.0 0.00 0.00 0.00 54 1012.9
20260905192031 96 338 1.0 3.0 0.00 0.00 0.00 53 1012.9
20260905191549 96 339 1.0 5.0 0.00 0.00 0.00 54 1013.0
20260905191031 96 259 1.0 5.0 0.00 0.00 0.00 53 1013.0
20260905190529 97 13 3.0 8.0 0.00 0.00 0.00 52 1012.9
20260905190059 97 59 4.0 8.0 0.00 0.00 0.00 51 1013.0
20260905185530 98 82 2.0 5.0 0.00 0.00 0.00 54 1013.3
20260905185029 98 67 2.0 5.0 0.00 0.00 0.00 51 1013.3
20260905184553 98 0 1.0 4.0 0.00 0.00 0.00 50 1013.4
20260905184029 98 107 1.0 6.0 0.00 0.00 0.00 51 1013.4
20260905183532 98 86 1.0 6.0 0.00 0.00 0.00 50 1013.6
20260905183106 98 53 2.0 6.0 0.00 0.00 0.00 51 1013.6
20260905182529 98 276 1.0 6.0 0.00 0.00 0.00 52 1013.7
20260905182030 98 19 3.0 6.0 0.00 0.00 0.00 50 1013.8
20260905181558 99 355 1.0 5.0 0.00 0.00 0.00 51 1013.8
20260905181031 99 55 2.0 5.0 0.00 0.00 0.00 51 1013.9
20260905180529 99 325 2.0 4.0 0.00 0.00 0.00 52 1014.0
20260905180057 99 355 2.0 4.0 0.00 0.00 0.00 51 1013.9